This is the latest recevied weather packets stored in our database for station/object CE2KVL-1. If no packets are shown the sender has not sent any weather packets the latest 10 day(s).
| Time | Temp. | Humidity | Pressure | Rain* | Wind** | Luminosity | Snow |
|---|---|---|---|---|---|---|---|
| 1778256486 | 13.89° C | 84% | 1024.9 hPa | - | - | - | - |
| 1778256186 | 13.89° C | 84% | 1025.4 hPa | - | - | - | - |
| 1778255886 | 13.33° C | 86% | 1025.6 hPa | - | - | - | - |
| 1778255586 | 13.89° C | 87% | 1025 hPa | - | - | - | - |
| 1778255286 | 13.33° C | 87% | 1025.2 hPa | - | - | - | - |
| 1778254985 | 13.33° C | 86% | 1026.1 hPa | - | - | - | - |
| 1778254686 | 13.89° C | 86% | 1025 hPa | - | - | - | - |
| 1778254386 | 13.33° C | 86% | 1025.2 hPa | - | - | - | - |
| 1778254086 | 13.33° C | 87% | 1024.8 hPa | - | - | - | - |
| 1778253786 | 12.78° C | 88% | 1026.1 hPa | - | - | - | - |
| 1778253486 | 12.78° C | 88% | 1025.4 hPa | - | - | - | - |
| 1778253186 | 12.78° C | 86% | 1026.4 hPa | - | - | - | - |
| 1778252886 | 12.78° C | 87% | 1025.5 hPa | - | - | - | - |
| 1778252585 | 12.78° C | 88% | 1026.6 hPa | - | - | - | - |
| 1778252285 | 12.78° C | 88% | 1025.5 hPa | - | - | - | - |
| 1778251986 | 12.78° C | 89% | 1026.5 hPa | - | - | - | - |
| 1778251686 | 12.78° C | 90% | 1026 hPa | - | - | - | - |
| 1778251386 | 12.78° C | 91% | 1026.1 hPa | - | - | - | - |
| 1778251085 | 12.78° C | 91% | 1025.9 hPa | - | - | - | - |
| 1778250786 | 12.22° C | 95% | 1026.2 hPa | - | - | - | - |
| 1778250486 | 12.22° C | 96% | 1026.8 hPa | - | - | - | - |
| 1778249886 | 12.22° C | 96% | 1027.5 hPa | - | - | - | - |
| 1778249586 | 12.22° C | 96% | 1026.1 hPa | - | - | - | - |
| 1778249285 | 11.67° C | 99% | 1027 hPa | - | - | - | - |
| 1778248986 | 11.67° C | 99% | 1027 hPa | - | - | - | - |
* Rain since midnight (hover to see other rain measurements)
** Current wind speed in m/s (hover to see current wind gust speed)